sat.trackr.live / text

‹ back to catalog

STARLINK-11567 [DTC]

NORAD 62909 · 2025-027C

PAYLOAD ACTIVE UNKNOWN

§ Identity

Operator
Country
US
Launch date
2025-02-08
Launch site
AFETR
Launch vehicle
Mass (kg)
RCS (m²)

Purposes: comms

External: N2YO · Heavens-Above · Gunter

§ Orbital elements

Epoch: 2026-09-21T22:34:49.931616Z

Period
91.67 min
Inclination
42.9973°
Eccentricity
0.0002214
Mean motion
15.70936673 rev/d
Perigee alt
354.7 km
Apogee alt
357.7 km
Semi-major
6,734.4 km
B*
1.1923e-3
RAAN
245.0588°
Arg perigee
268.3420°
Mean anomaly
91.7194°
Rev number
9,401

§ Raw data

STARLINK-11567 [DTC]1 62909U 25027C   26264.94085569  .00156083  00000+0  11923-2 0  99982 62909  42.9973 245.0588 0002214 268.3420  91.7194 15.70936673 94010

JSON: /api/v1/satellites/62909 · /tle

For live sub-satellite position, see the globe view (requires WebGL).

§ Visibility from observer

Set your observer location to see the next 7 days of passes ≥ 10°. The values pass through the URL so the page stays shareable.

No JS? Fill the form by hand. The geolocation button needs JavaScript.